Theta_e
359 356 353 351 344 346 345 345 345 348 349 348 346 347 348 347 347 347 345 347 348 347 345 344 342 339 338 336 333 330 327 325 325 325 326 326 325 325 325 325 325 325 324
362 356 357 356 353 353 350 349 347 345 345 345 345 348 348 349 346 345 348 347 348 347 347 346 344 342 340 338 336 333 330 326 325 324 325 324 325 325 324 324 324 324 324
363 357 357 355 355 354 351 351 352 353 345 349 349 347 346 346 346 350 348 349 347 348 348 348 347 345 343 341 338 336 333 329 326 324 323 324 324 324 323 324 324 323 323
360 364 356 356 356 356 354 350 352 350 350 344 344 344 340 343 345 349 349 348 348 346 347 348 348 348 346 344 342 340 337 332 328 325 324 323 323 324 323 323 323 323 323
358 359 356 355 362 355 352 352 350 351 346 339 345 348 343 343 341 347 348 346 349 345 346 348 348 347 348 346 345 344 341 336 330 327 324 321 323 322 322 322 322 322 322
357 359 356 358 359 355 353 350 349 353 353 350 340 347 342 343 340 338 345 347 349 349 347 346 345 344 347 348 347 346 344 341 331 329 324 320 320 321 321 321 321 321 322
358 359 355 357 360 356 353 355 353 351 350 349 345 343 347 340 339 336 348 345 341 343 344 348 347 344 345 347 346 346 345 341 334 331 324 321 320 320 320 320 320 321 321
360 359 357 356 355 353 356 356 353 349 348 349 341 339 332 337 342 341 344 338 337 341 340 348 346 346 344 344 344 345 345 342 336 332 325 320 319 319 319 319 319 320 321
359 361 359 356 358 355 352 353 353 351 342 344 347 337 330 328 335 342 340 337 342 339 342 345 347 345 345 342 343 343 344 342 338 333 325 321 320 318 319 319 318 319 321
359 358 359 357 356 356 352 354 353 350 348 342 341 342 345 339 329 327 336 341 342 339 339 339 342 344 344 343 345 343 341 339 338 331 326 323 320 318 317 317 318 319 318
358 357 358 358 357 357 353 351 350 350 350 343 342 338 336 340 337 326 320 333 339 340 344 343 342 340 342 342 342 339 339 338 332 328 324 321 319 317 315 315 317 317 317
357 357 357 357 358 355 352 355 352 351 347 348 346 338 335 330 330 328 323 326 331 335 341 341 339 340 339 339 338 337 333 329 325 322 320 319 316 314 314 314 315 315 315
354 355 356 356 355 355 354 352 350 351 349 346 346 342 341 337 335 333 328 325 325 331 337 339 338 338 338 336 336 334 328 323 320 317 316 314 313 311 310 312 312 312 313
351 333 339 340 341 352 353 351 352 349 350 349 348 345 342 341 336 331 330 328 322 325 334 333 336 336 335 331 331 327 321 319 316 314 312 311 310 308 310 310 309 310 310
350 340 332 331 332 334 349 348 348 349 348 348 346 349 343 341 337 334 333 330 327 319 324 331 331 333 329 324 321 317 315 316 314 311 309 308 306 307 308 307 307 307 307
343 341 341 331 328 329 344 347 347 350 348 344 342 345 342 339 340 336 335 334 331 326 324 333 330 327 324 321 320 315 315 314 312 309 308 306 305 305 305 306 306 306 306
339 339 338 340 331 325 341 343 345 347 345 344 341 342 340 340 339 335 336 335 333 331 328 329 329 325 321 317 315 314 313 310 309 308 306 303 303 304 304 304 304 304 304
335 336 336 337 337 341 341 340 342 344 344 340 342 339 340 338 340 339 335 334 333 336 331 326 327 325 320 316 314 313 311 311 309 309 305 304 303 304 304 304 304 304 304
330 331 334 333 332 336 336 333 341 340 339 341 342 336 339 338 336 336 338 338 333 335 334 331 327 325 318 315 313 312 311 311 310 309 304 304 304 303 303 305 304 303 302
326 327 329 330 332 332 334 334 335 328 335 338 341 340 338 338 336 328 325 323 323 324 331 328 328 325 318 317 314 310 308 310 308 307 304 307 304 301 302 304 302 301 301
324 325 325 326 328 331 330 327 329 331 330 327 336 338 335 334 329 328 327 324 323 320 320 326 324 326 321 315 314 314 311 309 310 309 305 302 300 301 302 304 300 300 300
323 323 322 323 324 325 313 314 320 327 330 329 324 328 329 325 322 320 320 320 323 321 320 321 323 323 323 319 319 315 313 308 306 310 306 302 302 301 303 298 299 298 298
321 321 322 321 320 324 310 307 309 327 328 330 331 329 326 328 324 323 317 318 317 316 321 322 320 326 325 327 325 319 313 310 312 309 308 304 301 300 303 299 299 298 297
319 317 316 316 317 320 310 305 305 324 326 328 329 330 325 321 323 322 321 320 321 321 321 322 325 331 331 332 329 327 319 313 310 309 310 304 303 302 302 299 299 298 297
315 316 315 314 314 315 309 303 307 323 324 326 327 329 330 327 315 309 321 320 322 321 316 318 316 310 310 315 325 323 316 313 311 309 310 308 305 302 301 300 300 299 297
310 311 312 313 312 314 309 302 304 321 320 321 325 328 315 323 309 307 321 321 319 320 321 317 316 313 314 312 313 327 322 316 314 310 310 307 305 302 297 300 302 300 299
Wind_Speed
3 4 4 5 8 9 8 7 7 5 5 3 3 6 11 13 9 5 4 14 13 14 15 14 13 12 10 9 7 5 3 3 3 5 7 8 9 10 10 11 11 11 12
5 5 4 3 4 2 3 4 5 5 4 5 6 5 3 3 3 11 6 8 15 17 16 15 14 12 11 11 9 7 6 4 3 3 6 6 9 10 10 10 11 11 12
5 6 4 4 4 4 3 3 3 2 2 5 6 4 2 4 5 9 6 5 9 19 16 15 14 14 14 12 11 10 8 7 4 4 2 6 7 9 10 10 10 11 11
7 4 4 4 4 3 3 4 4 3 3 5 3 6 2 4 5 5 4 8 8 7 12 15 15 16 16 16 15 15 14 12 9 6 4 5 7 10 10 11 11 11 12
9 6 5 5 5 3 4 4 4 4 3 4 6 5 6 5 9 9 3 7 8 9 8 17 19 16 15 16 16 16 16 17 14 8 4 1 6 7 9 10 11 10 11
10 9 7 6 5 3 4 4 5 3 1 3 2 2 5 5 8 3 17 6 9 7 10 10 9 9 16 16 16 18 16 10 14 11 6 2 2 5 8 9 10 11 12
11 8 7 7 5 5 6 6 4 4 3 2 4 3 3 5 5 8 3 0 4 2 6 9 6 5 7 16 16 17 14 6 20 14 10 4 3 4 7 9 10 11 11
10 10 9 7 8 6 7 6 5 3 3 4 3 2 3 2 9 6 3 1 2 4 4 8 8 6 4 3 7 15 14 6 21 16 12 6 2 4 5 7 9 10 10
11 9 10 9 6 8 6 7 5 5 4 4 4 4 2 3 2 3 5 3 5 3 3 6 6 0 5 2 3 3 3 13 20 17 13 8 6 4 8 9 8 7 9
12 12 10 11 10 8 7 5 6 5 5 5 1 3 6 3 2 2 2 3 5 3 3 2 8 7 7 4 7 6 11 21 20 17 13 10 7 6 7 8 9 10 10
14 15 15 13 11 8 8 8 8 7 5 5 4 2 2 4 4 3 2 2 2 4 5 7 8 5 6 5 5 6 9 16 19 16 13 10 8 6 4 5 8 10 11
11 17 16 13 12 10 8 6 6 10 8 6 5 5 4 4 4 3 3 3 5 3 8 8 6 5 4 5 7 10 17 19 17 15 12 11 8 5 4 6 8 9 10
11 16 22 18 10 10 10 7 8 7 9 8 6 6 4 4 4 4 2 2 2 2 5 7 5 4 5 5 5 13 20 18 16 14 12 10 7 4 4 7 8 9 10
11 8 23 17 20 10 6 6 6 7 9 9 9 6 3 2 3 3 4 2 2 1 3 7 4 5 7 5 13 18 10 15 14 12 10 8 4 3 5 8 8 9 10
11 1 9 8 18 25 14 8 8 11 11 11 10 7 5 4 3 4 3 3 3 1 2 3 4 8 6 6 10 9 8 12 11 10 7 5 4 5 6 7 8 8 9
13 13 9 12 17 21 25 12 11 12 11 9 8 8 6 4 4 5 4 3 3 2 5 3 5 5 6 6 10 9 8 9 9 6 5 3 4 4 5 7 8 8 9
8 12 10 9 12 20 23 12 13 12 15 11 11 11 9 7 3 5 4 3 3 3 8 5 5 7 5 8 8 8 7 5 4 4 3 2 2 4 5 7 8 7 8
12 9 10 9 6 8 12 13 22 13 15 13 11 8 12 8 6 6 5 6 5 5 6 12 9 5 4 7 6 7 5 4 3 7 6 3 1 4 5 7 7 8 8
12 12 9 8 9 9 5 6 23 12 8 12 13 13 13 13 8 3 4 4 3 3 4 7 6 4 3 5 3 3 4 5 2 7 5 4 3 2 3 4 8 8 8
13 12 10 11 10 8 7 5 2 11 21 20 19 16 11 13 11 10 9 8 7 8 3 5 6 5 4 6 4 4 3 3 4 4 3 4 6 3 1 7 9 9 8
12 13 12 9 9 9 4 5 1 4 6 21 20 9 4 11 20 14 9 7 9 5 4 6 3 4 6 6 7 5 4 4 3 3 3 3 3 3 3 4 7 8 7
9 10 13 13 8 7 8 6 2 3 7 5 11 13 7 12 14 11 10 15 11 5 2 1 5 2 9 7 8 8 6 3 3 5 5 4 4 3 1 4 6 5 6
8 11 12 13 16 8 4 2 3 3 3 5 6 12 12 5 7 12 13 8 12 12 11 7 3 4 5 9 10 10 7 5 3 5 5 3 3 4 3 5 4 2 4
6 6 9 12 16 15 11 6 6 6 4 5 5 8 8 10 11 13 17 15 15 12 12 8 8 5 3 6 11 8 9 7 6 5 3 3 4 3 4 4 5 2 2
11 8 8 10 14 15 20 11 6 5 7 8 7 6 12 13 15 16 14 16 17 13 8 7 11 11 10 10 10 9 7 6 3 3 6 2 4 3 3 3 4 7 6
12 11 12 10 11 14 15 12 10 6 7 6 7 6 9 11 17 23 18 17 17 18 11 5 4 5 6 6 10 9 9 7 4 3 7 5 3 3 3 2 3 3 4
Wind_Direction
215 195 241 184 207 181 200 196 223 211 234 276 258 183 188 211 153 145 182 166 195 208 193 194 200 205 205 206 202 186 163 118 69 45 29 16 14 9 4 3 358 354 357
226 188 212 230 276 243 260 192 208 202 204 234 259 228 261 316 307 143 168 174 198 216 203 199 202 210 215 215 209 206 190 178 127 69 33 18 13 8 2 359 357 355 2
250 194 211 207 219 237 229 306 313 192 235 264 237 235 285 219 241 155 179 168 187 217 204 205 209 207 215 220 222 214 206 197 168 106 26 14 8 6 360 357 359 357 358
223 218 241 218 228 204 188 215 240 239 216 342 332 305 194 272 253 247 225 144 186 198 208 204 213 215 215 219 218 216 208 199 183 162 77 4 10 6 3 353 357 357 3
194 233 214 257 200 207 215 220 233 219 168 222 263 204 55 49 345 336 12 121 205 207 179 201 206 212 218 225 233 231 223 200 176 144 126 358 38 344 4 352 354 359 5
196 189 234 231 190 189 233 227 231 229 229 210 249 231 119 137 236 92 259 181 209 194 185 168 189 207 216 223 233 240 244 219 175 159 146 236 21 357 4 358 359 1 9
195 198 205 239 194 195 217 228 221 209 237 240 285 294 173 174 245 230 289 347 342 323 126 152 168 189 203 217 229 241 246 219 175 162 148 152 254 24 9 4 6 6 3
191 197 202 231 195 205 223 234 215 253 247 195 226 241 288 196 211 239 266 185 33 7 314 151 172 183 187 176 216 232 242 239 170 156 149 171 176 43 17 18 17 6 359
191 198 193 213 221 201 213 202 201 193 235 263 161 144 268 231 234 186 212 209 150 208 302 116 172 24 112 70 80 60 164 156 166 152 151 140 94 33 25 6 8 14 8
190 199 208 198 222 207 212 188 178 189 193 239 58 223 236 145 356 124 214 191 165 176 176 97 89 70 65 61 69 75 130 156 155 144 146 140 121 68 42 352 6 11 14
195 198 199 208 207 218 194 192 181 181 191 207 188 211 225 223 203 158 231 150 235 204 174 90 85 79 66 51 61 96 125 146 135 142 144 126 107 94 54 16 19 19 10
201 205 197 196 208 203 210 203 187 180 191 199 180 219 209 172 206 175 205 206 191 159 99 99 93 80 78 84 78 105 117 124 133 139 137 121 116 106 59 41 27 22 10
221 213 196 183 197 204 200 200 183 183 189 202 194 225 224 185 195 152 154 303 137 163 104 85 85 93 94 91 88 117 126 128 132 132 126 130 124 108 66 43 26 16 3
309 23 21 6 359 284 254 214 186 195 201 198 206 192 223 297 172 134 152 170 341 226 156 117 93 80 66 68 106 107 114 123 126 126 130 123 123 83 46 31 15 12 2
336 142 153 149 178 281 243 215 200 202 205 197 197 176 176 227 189 144 138 117 127 324 73 158 111 71 88 95 101 98 104 122 123 125 136 140 107 49 28 15 6 4 1
335 344 315 195 197 229 250 209 209 203 211 198 191 185 179 201 216 136 139 138 136 150 112 117 75 100 100 94 104 103 114 118 125 142 144 133 95 59 24 2 356 356 357
350 337 348 328 226 226 236 237 212 213 205 199 201 182 185 193 189 145 146 157 157 141 113 109 110 126 106 114 112 120 129 137 140 150 147 148 90 63 40 25 16 14 13
335 346 355 337 332 224 216 236 243 215 200 207 194 197 186 193 196 171 161 176 166 170 123 143 138 140 100 127 135 127 130 142 171 163 167 176 202 87 64 40 35 27 35
327 332 342 345 345 337 345 258 235 300 264 204 207 201 190 179 183 168 95 103 81 102 114 135 136 129 110 137 132 128 156 142 174 163 184 192 189 138 64 43 52 32 25
317 321 329 334 331 345 13 356 339 240 274 294 205 209 200 181 162 123 107 97 73 36 344 126 141 154 135 153 153 154 154 157 161 195 190 198 190 209 132 91 54 35 17
307 310 315 322 330 335 56 65 339 309 252 286 289 232 174 149 139 142 140 144 103 98 65 301 167 157 134 155 182 168 164 153 160 183 194 171 204 228 219 93 62 29 14
295 302 309 311 315 316 125 182 214 225 229 260 195 212 225 164 138 141 115 114 114 120 114 223 293 214 168 164 176 162 141 143 197 177 189 202 196 205 245 90 87 45 16
316 317 311 306 305 291 115 147 285 229 241 273 247 216 174 195 172 138 106 127 189 195 165 161 256 281 165 177 165 161 152 153 178 146 171 198 170 221 163 119 118 67 358
266 289 304 309 313 309 306 203 183 286 282 266 275 173 184 167 180 184 176 190 209 212 205 173 181 247 172 149 155 155 153 115 91 126 200 224 157 221 130 134 174 204 320
312 279 279 290 298 301 313 274 205 223 265 272 264 241 187 190 197 203 195 196 209 217 215 191 158 140 141 134 132 116 127 144 131 163 191 272 163 153 141 172 180 220 250
294 299 292 278 279 297 303 293 253 242 248 260 270 253 232 222 192 197 201 202 206 212 206 152 135 98 143 136 141 153 159 170 150 161 173 188 124 175 133 173 195 199 236